Regional Weather Roundup
Issued by NWS Glasgow, MT

Home | Current Version | Previous Version | Text Only | Print | Product List | Glossary On
Versions: 1 2 3 4 5 6 7 8 9 10 11 12 13 14 15 16 17 18 19 20 21 22 23 24 25 26 27 28 29 30 31 32 33 34 35 36 37 38 39 40 41 42 43 44 45 46 47 48 49 50
000
ASUS45 KGGW 051815
RWRGGW
HOURLY REGIONAL WEATHER ROUNDUP FOR NORTHEAST MONTANA
NATIONAL WEATHER SERVICE GLASGOW MONTANA
1100 AM MST MON DEC 05 2016

NOTE: "FAIR" INDICATES FEW OR NO CLOUDS BELOW 12,000 FEET WITH NO
SIGNIFICANT WEATHER AND/OR OBSTRUCTIONS TO VISISBILITY.

NORTHEAST MONTANA


CITY           SKY/WX    TMP DP  RH WIND       PRES   REMARKS
GLASGOW        CLOUDY    11   3  70 NW32G41   29.90R WCI -12
6HR MIN TEMP:  11; 6HR MAX TEMP:  22; 6HR PCP: TRACE;

PLENTYWOOD       N/A     16  15  96 NW26G35     N/A  WCI  -3
WOLF POINT     SNOW      16   9  74 NW28G38   29.87R VSB 1/2 WCI  -4
JORDAN           N/A     15   9  76 NW21      29.90R WCI  -2
WINNETT          N/A     17   7  64 W21G30      N/A
SIDNEY         LGT SNOW  18  14  86 NW30G39   29.74S VSB 1   WCI  -2
GLENDIVE       LGT SNOW  19  16  86 NW29G37   29.78R
MALTA            N/A     11   1  64 NW18G29     N/A  WCI  -7

FORT PECK REPORTS


CITY           SKY/WX    TMP DP  RH WIND       PRES   REMARKS
FORT PECK        N/A     13   8  81 W28G39      N/A  WCI  -8
THE PINES        N/A     14   6  70 W3G18       N/A

SOUTHEAST MONTANA


CITY           SKY/WX    TMP DP  RH WIND       PRES   REMARKS
BILLINGS       CLOUDY    22   6  50 NW24G36   29.88R
MILES CITY     CLOUDY    25  14  63 NW24G35   29.84R
BAKER          FLURRIES  22  15  75 NW26G41   29.71R
LIVINGSTON     CLOUDY    19   9  65 NW14      29.91

CENTRAL MONTANA


CITY           SKY/WX    TMP DP  RH WIND       PRES   REMARKS
HAVRE          CLOUDY     9   1  70 NW17      30.07R WCI  -9
LEWISTOWN      CLOUDY    10   5  80 W13       29.93R WCI  -5
GREAT FALLS    CLOUDY    13   5  70 NW9       30.03
CUT BANK       CLOUDY     7   1  76 NW18      30.01R WCI -12
HELENA         LGT SNOW  21  14  74 CALM      29.97S
BUTTE          CLOUDY    18   1  47 VRB6      29.90
BOZEMAN        CLOUDY    21  11  65 W7        29.95R

WESTERN MONTANA


CITY           SKY/WX    TMP DP  RH WIND       PRES   REMARKS
MISSOULA       CLOUDY    28   9  44 CALM      30.04
KALISPELL      NOT AVBL

NORTH DAKOTA


CITY           SKY/WX    TMP DP  RH WIND       PRES   REMARKS
WILLISTON      LGT SNOW  22  17  81 NW32G39   29.66S VSB 3/4
DICKINSON      CLOUDY    21  17  84 NW24G31   29.63R FOG
MINOT          CLOUDY    27  22  81 SW12      29.55S
BISMARCK       SNOW      31  29  92 NW15      29.57F VSB 1/4

SOUTHERN SASKATCHEWAN


CITY           SKY/WX    TMP DP  RH WIND       PRES   REMARKS
REGINA         FLURRIES  16  12  86 NW22      29.79R WCI  -2
MOOSE JAW      LGT SNOW  14   9  79 NW23G30   29.85R WCI  -5
ESTEVAN        SNOW      19  18  93 N18       29.62R VSB 1/2
SWIFT CURRENT  CLOUDY     3   0  85 NW28G36   29.88R WCI -21




USA.gov is the U.S. government's official web portal to all federal, state and local government web resources and services.